Location: Unspecified
(48.8656°N, 0.0000°E)
Time: 17:45:14
(UTC+00:00)

SR - Pass Details

Date: 29 June 2019
Orbit: 575 x 881 km, 66.7° (Epoch: 18 October)

Event Time Altitude Azimuth Distance (km) Brightness Sun altitude
Rises 04:09:32 0° 266° (W) 2,793 ? 0.5°
Reaches altitude 10° 04:12:25 10° 288° (WNW) 1,918 ? 0.9°
Maximum altitude 04:15:15 17° 329° (NNW) 1,545 ? 1.3°
Drops below altitude 10° 04:18:11 10° 11° (N) 1,996 ? 1.7°
Sets 04:21:16 0° 32° (NNE) 2,961 ? 2.1°
